Location: Unspecified
(0.0000°N, 0.0000°E)
Time: 18:11:49
(UTC+00:00)

Hubble Space Telescope - Pass Details

Date: 30 May 2019
Orbit: 536 x 540 km, 28.5° (Epoch: 18 August)

Event Time Altitude Azimuth Distance (km) Brightness Sun altitude
Rises 18:53:52 0° 281° (W) 2,672 6.1 -13.0°
Reaches altitude 10° 18:56:21 10° 269° (W) 1,782 4.5 -13.6°
Maximum altitude 18:59:54 27° 209° (SSW) 1,037 2.3 -14.4°
Enters shadow 19:02:23 16° 160° (SSE) 1,456 2.6 -15.0°
